Location: ????????
(42.0488°N, 44.0407°E)
Time: 20:19:45
(UTC+00:00)

FALCON 9 DEB - Pass Details

Date: 07 June 2020
Orbit: 428 x 442 km, 53.0° (Epoch: 06 July)

Event Time Altitude Azimuth Distance (km) Brightness Sun altitude
Rises 00:41:37 0° 304° (NW) 2,409 6.7 -7.8°
Reaches altitude 10° 00:43:45 10° 301° (WNW) 1,541 5.7 -7.5°
Maximum altitude 00:47:10 60° 221° (SW) 502 3.1 -7.0°
Drops below altitude 10° 00:50:34 10° 141° (SE) 1,541 5.9 -6.5°
Sets 00:52:42 0° 137° (SE) 2,408 7.0 -6.2°
